AEROCUBE 7B (OCSD B) (43042 NORAD) Tracking and Keplerian Element Data

This shows tracking and keplerian element data for the satellite.

Feedback or suggestion? Click here.




ElementValue
Catalog43042
NameAEROCUBE 7B (OCSD B)
Epoch Orbit21447
Epoch Day269.34531021
Epoch Year2021
RAAN290.5063
Inclination51.6358
Eccentricity0.0003475
Argument of Perigee342.8719
Mean Anonmoly17.2152
Mean Motion15.50472665
Decay Rate0.00015612
L11 43042U 17071F 21269.34531021 .00015612 00000-0 27633-3 0 9997
L22 43042 51.6358 290.5063 0003475 342.8719 17.2152 15.50472665214478

Live tracking and technical data element details for AEROCUBE 7B (OCSD B) (NORAD 43042). AEROCUBE 7B (OCSD B) can be tracked NOW for your location showing map with azimuth and elevation plus other details from your city location.

Track the satellite on the map from your city or location and see movement details for azimuth, elevation, latitude, longitude, range, height, and movement on the map or in text.







IsCatalogInMostPopularTable: catalog: 43042, numindb: 572
Update: records affected: 1



GetName: 43042 AEROCUBE 7B (OCSD B)

Hit Count: updated at: Tue, 28 Sep 2021 17:18:40 GMT